Time,TemperatureF,DewpointF,PressureIn,WindDirection,WindDirectionDegrees,WindSpeedMPH,WindSpeedGustMPH,Humidity,HourlyPrecipIn,Conditions,Clouds,dailyrainin,SoftwareType,DateUTC
2013-02-11 00:00:00,34.4,32.3,30.07,South,183,0.0,0.0,92,0.00,,,0.05,Wunderground v.1.15,2013-02-11 05:00:00,
2013-02-11 00:10:00,34.4,32.3,30.08,South,183,0.0,0.0,92,0.00,,,0.00,Wunderground v.1.15,2013-02-11 05:10:00,
2013-02-11 00:20:00,34.4,32.3,30.07,South,183,0.0,0.0,92,0.00,,,0.00,Wunderground v.1.15,2013-02-11 05:20:00,
2013-02-11 00:30:00,34.4,32.3,30.07,South,184,0.0,0.0,92,0.00,,,0.00,Wunderground v.1.15,2013-02-11 05:30:00,
2013-02-11 00:40:00,34.4,32.6,30.06,South,184,0.0,0.0,93,0.00,,,0.00,Wunderground v.1.15,2013-02-11 05:40:00,
2013-02-11 00:50:00,34.4,32.6,30.07,South,183,0.0,0.0,93,0.00,,,0.00,Wunderground v.1.15,2013-02-11 05:50:00,
2013-02-11 01:00:00,34.4,32.6,30.06,South,184,0.0,0.0,93,0.00,,,0.00,Wunderground v.1.15,2013-02-11 06:00:00,
2013-02-11 01:10:00,34.4,32.6,30.05,South,183,0.0,0.0,93,0.00,,,0.00,Wunderground v.1.15,2013-02-11 06:10:00,
2013-02-11 01:20:00,34.4,32.9,30.06,South,183,0.0,0.0,94,0.00,,,0.01,Wunderground v.1.15,2013-02-11 06:20:00,
2013-02-11 01:30:00,34.4,32.9,30.05,South,183,0.0,0.0,94,0.00,,,0.01,Wunderground v.1.15,2013-02-11 06:30:00,
2013-02-11 01:40:00,34.6,33.1,30.05,South,183,0.0,0.0,94,0.00,,,0.01,Wunderground v.1.15,2013-02-11 06:40:00,
2013-02-11 01:50:00,34.7,33.2,30.04,South,183,0.0,0.0,94,0.00,,,0.02,Wunderground v.1.15,2013-02-11 06:50:00,
2013-02-11 02:00:00,34.7,33.4,30.04,South,183,0.0,1.0,95,0.00,,,0.02,Wunderground v.1.15,2013-02-11 07:00:00,
2013-02-11 02:10:00,34.9,33.6,30.03,South,183,0.0,1.0,95,0.00,,,0.02,Wunderground v.1.15,2013-02-11 07:10:00,
2013-02-11 02:20:00,35.0,33.7,30.03,South,183,0.0,0.0,95,0.00,,,0.02,Wunderground v.1.15,2013-02-11 07:20:00,
2013-02-11 02:30:00,35.1,33.8,30.03,South,183,0.0,0.0,95,0.00,,,0.03,Wunderground v.1.15,2013-02-11 07:30:00,
2013-02-11 02:40:00,35.3,34.0,30.01,South,183,0.0,0.0,95,0.00,,,0.03,Wunderground v.1.15,2013-02-11 07:40:00,
2013-02-11 02:50:00,35.6,34.6,30.01,South,183,0.0,0.0,96,0.00,,,0.03,Wunderground v.1.15,2013-02-11 07:50:00,
2013-02-11 03:00:00,36.5,35.5,30.01,South,183,0.0,0.0,96,0.00,,,0.03,Wunderground v.1.15,2013-02-11 08:00:00,
2013-02-11 03:10:00,36.9,35.9,29.99,South,183,0.0,0.0,96,0.00,,,0.03,Wunderground v.1.15,2013-02-11 08:10:00,
2013-02-11 03:20:00,37.1,36.3,29.98,South,184,0.0,0.0,97,0.00,,,0.04,Wunderground v.1.15,2013-02-11 08:20:00,
2013-02-11 03:30:00,37.3,36.5,29.99,South,184,0.0,0.0,97,0.00,,,0.04,Wunderground v.1.15,2013-02-11 08:30:00,
2013-02-11 03:40:00,37.3,36.3,29.98,South,184,0.0,0.0,96,0.00,,,0.04,Wunderground v.1.15,2013-02-11 08:40:00,
2013-02-11 03:50:00,37.2,36.2,29.98,South,184,0.0,0.0,96,0.00,,,0.04,Wunderground v.1.15,2013-02-11 08:50:00,
2013-02-11 04:00:00,37.3,36.5,29.98,South,184,0.0,0.0,97,0.00,,,0.04,Wunderground v.1.15,2013-02-11 09:00:00,
2013-02-11 04:10:00,37.3,36.5,29.98,South,184,0.0,0.0,97,0.00,,,0.04,Wunderground v.1.15,2013-02-11 09:10:00,
2013-02-11 04:20:00,37.4,36.6,29.97,South,184,0.0,0.0,97,0.00,,,0.04,Wunderground v.1.15,2013-02-11 09:20:00,
2013-02-11 04:30:00,37.6,36.8,29.96,South,184,0.0,0.0,97,0.00,,,0.05,Wunderground v.1.15,2013-02-11 09:30:00,
2013-02-11 04:40:00,37.6,36.8,29.96,South,183,0.0,0.0,97,0.00,,,0.05,Wunderground v.1.15,2013-02-11 09:40:00,
2013-02-11 04:50:00,37.7,36.9,29.96,South,184,0.0,0.0,97,0.00,,,0.05,Wunderground v.1.15,2013-02-11 09:50:00,
2013-02-11 05:00:00,37.9,37.1,29.95,South,184,0.0,1.0,97,0.00,,,0.05,Wunderground v.1.15,2013-02-11 10:00:00,
2013-02-11 05:10:00,38.3,37.5,29.95,ESE,121,0.0,0.0,97,0.00,,,0.05,Wunderground v.1.15,2013-02-11 10:10:00,
2013-02-11 05:20:00,38.5,37.7,29.95,ESE,121,0.0,0.0,97,0.00,,,0.05,Wunderground v.1.15,2013-02-11 10:20:00,
2013-02-11 05:30:00,38.8,38.3,29.96,ESE,121,0.0,0.0,98,0.00,,,0.05,Wunderground v.1.15,2013-02-11 10:30:00,
2013-02-11 05:40:00,39.4,38.9,29.96,ESE,121,0.0,0.0,98,0.00,,,0.06,Wunderground v.1.15,2013-02-11 10:40:00,
2013-02-11 05:50:00,39.9,39.4,29.96,ESE,121,0.0,0.0,98,0.00,,,0.06,Wunderground v.1.15,2013-02-11 10:50:00,
2013-02-11 06:00:00,40.2,39.7,29.95,ESE,121,0.0,0.0,98,0.00,,,0.06,Wunderground v.1.15,2013-02-11 11:00:00,
2013-02-11 06:10:00,40.3,39.8,29.95,ESE,121,0.0,0.0,98,0.00,,,0.06,Wunderground v.1.15,2013-02-11 11:10:00,
2013-02-11 06:20:00,40.4,39.9,29.95,ESE,121,0.0,0.0,98,0.00,,,0.06,Wunderground v.1.15,2013-02-11 11:20:00,
2013-02-11 06:30:00,40.6,40.1,29.94,ESE,121,0.0,0.0,98,0.00,,,0.06,Wunderground v.1.15,2013-02-11 11:30:00,
2013-02-11 06:40:00,40.9,40.4,29.93,ESE,121,0.0,0.0,98,0.00,,,0.06,Wunderground v.1.15,2013-02-11 11:40:00,
2013-02-11 06:50:00,41.1,40.6,29.93,ESE,121,0.0,0.0,98,0.00,,,0.06,Wunderground v.1.15,2013-02-11 11:50:00,
2013-02-11 07:00:00,41.7,41.2,29.93,ESE,121,0.0,0.0,98,0.00,,,0.07,Wunderground v.1.15,2013-02-11 12:00:00,
2013-02-11 07:10:00,42.4,41.9,29.93,ESE,121,0.0,0.0,98,0.00,,,0.07,Wunderground v.1.15,2013-02-11 12:10:00,
2013-02-11 07:20:00,42.9,42.6,29.93,ESE,121,0.0,0.0,99,0.00,,,0.07,Wunderground v.1.15,2013-02-11 12:20:00,
2013-02-11 07:30:00,43.3,43.0,29.93,ESE,121,0.0,0.0,99,0.00,,,0.07,Wunderground v.1.15,2013-02-11 12:30:00,
2013-02-11 07:40:00,43.5,43.2,29.93,ESE,121,0.0,0.0,99,0.00,,,0.07,Wunderground v.1.15,2013-02-11 12:40:00,
2013-02-11 07:50:00,43.9,43.6,29.93,ESE,121,0.0,0.0,99,0.00,,,0.07,Wunderground v.1.15,2013-02-11 12:50:00,
2013-02-11 08:00:00,44.1,43.8,29.93,SSW,209,0.0,0.0,99,0.00,,,0.07,Wunderground v.1.15,2013-02-11 13:00:00,
2013-02-11 08:10:00,44.7,44.4,29.92,West,265,0.0,0.0,99,0.00,,,0.07,Wunderground v.1.15,2013-02-11 13:10:00,
2013-02-11 08:20:00,45.0,44.7,29.92,West,265,0.0,0.0,99,0.00,,,0.07,Wunderground v.1.15,2013-02-11 13:20:00,
2013-02-11 08:30:00,45.4,45.1,29.92,West,264,0.0,0.0,99,0.00,,,0.07,Wunderground v.1.15,2013-02-11 13:30:00,
2013-02-11 08:40:00,45.8,45.5,29.92,West,264,0.0,0.0,99,0.00,,,0.07,Wunderground v.1.15,2013-02-11 13:40:00,
2013-02-11 08:50:00,46.2,45.9,29.92,West,265,1.0,1.0,99,0.00,,,0.07,Wunderground v.1.15,2013-02-11 13:50:00,
2013-02-11 09:00:00,47.2,46.9,29.92,SSW,192,1.0,2.0,99,0.00,,,0.07,Wunderground v.1.15,2013-02-11 14:00:00,
2013-02-11 09:10:00,47.6,47.3,29.92,NW,322,1.0,1.0,99,0.00,,,0.07,Wunderground v.1.15,2013-02-11 14:10:00,
2013-02-11 09:20:00,47.8,47.5,29.91,WSW,242,1.0,1.0,99,0.00,,,0.07,Wunderground v.1.15,2013-02-11 14:20:00,
2013-02-11 09:30:00,48.2,47.9,29.91,SW,221,1.0,1.0,99,0.00,,,0.07,Wunderground v.1.15,2013-02-11 14:30:00,
2013-02-11 09:40:00,49.7,49.4,29.90,West,281,1.0,1.0,99,0.00,,,0.07,Wunderground v.1.15,2013-02-11 14:40:00,
2013-02-11 09:50:00,50.2,49.9,29.90,SSW,192,2.0,2.0,99,0.00,,,0.07,Wunderground v.1.15,2013-02-11 14:50:00,
2013-02-11 10:00:00,50.5,50.2,29.91,South,176,3.0,4.0,99,0.00,,,0.07,Wunderground v.1.15,2013-02-11 15:00:00,
2013-02-11 10:10:00,51.4,51.1,29.90,NW,309,3.0,6.0,99,0.00,,,0.07,Wunderground v.1.15,2013-02-11 15:10:00,
2013-02-11 10:20:00,52.7,52.4,29.88,WNW,292,2.0,4.0,99,0.00,,,0.07,Wunderground v.1.15,2013-02-11 15:20:00,
2013-02-11 10:30:00,53.0,52.5,29.88,West,268,4.0,4.0,98,0.00,,,0.07,Wunderground v.1.15,2013-02-11 15:30:00,
2013-02-11 10:40:00,53.7,52.9,29.88,SSW,200,3.0,3.0,97,0.00,,,0.07,Wunderground v.1.15,2013-02-11 15:40:00,
2013-02-11 10:50:00,53.8,52.4,29.88,West,271,3.0,3.0,95,0.00,,,0.07,Wunderground v.1.15,2013-02-11 15:50:00,
2013-02-11 11:00:00,53.6,51.9,29.88,West,265,2.0,2.0,94,0.00,,,0.07,Wunderground v.1.15,2013-02-11 16:00:00,
2013-02-11 11:10:00,53.8,51.8,29.87,WNW,288,1.0,4.0,93,0.00,,,0.07,Wunderground v.1.15,2013-02-11 16:10:00,
2013-02-11 11:20:00,54.5,51.9,29.87,SSW,198,2.0,2.0,91,0.00,,,0.07,Wunderground v.1.15,2013-02-11 16:20:00,
2013-02-11 11:30:00,55.3,52.1,29.86,South,172,2.0,2.0,89,0.00,,,0.07,Wunderground v.1.15,2013-02-11 16:30:00,
2013-02-11 11:40:00,55.9,52.1,29.85,WNW,302,2.0,4.0,87,0.00,,,0.07,Wunderground v.1.15,2013-02-11 16:40:00,
2013-02-11 11:50:00,56.0,51.9,29.86,West,275,2.0,7.0,86,0.00,,,0.07,Wunderground v.1.15,2013-02-11 16:50:00,
2013-02-11 12:00:00,55.9,51.8,29.86,West,265,3.0,4.0,86,0.00,,,0.07,Wunderground v.1.15,2013-02-11 17:00:00,
2013-02-11 12:10:00,55.7,51.3,29.86,WNW,297,5.0,6.0,85,0.00,,,0.07,Wunderground v.1.15,2013-02-11 17:10:00,
2013-02-11 12:20:00,55.8,51.7,29.85,WSW,254,4.0,4.0,86,0.00,,,0.07,Wunderground v.1.15,2013-02-11 17:20:00,
2013-02-11 12:30:00,55.9,51.5,29.84,SSW,213,3.0,3.0,85,0.00,,,0.07,Wunderground v.1.15,2013-02-11 17:30:00,
2013-02-11 12:40:00,56.2,51.4,29.84,West,275,3.0,7.0,84,0.00,,,0.07,Wunderground v.1.15,2013-02-11 17:40:00,
2013-02-11 12:50:00,56.5,51.4,29.84,SSW,195,6.0,6.0,83,0.00,,,0.07,Wunderground v.1.15,2013-02-11 17:50:00,
2013-02-11 13:00:00,56.5,51.1,29.83,WSW,250,5.0,5.0,82,0.00,,,0.07,Wunderground v.1.15,2013-02-11 18:00:00,
2013-02-11 13:10:00,56.6,50.8,29.83,WSW,252,4.0,4.0,81,0.00,,,0.07,Wunderground v.1.15,2013-02-11 18:10:00,
2013-02-11 13:20:00,56.6,50.5,29.81,WNW,283,6.0,6.0,80,0.00,,,0.07,Wunderground v.1.15,2013-02-11 18:20:00,
2013-02-11 13:30:00,56.8,50.0,29.81,WNW,288,6.0,6.0,78,0.00,,,0.07,Wunderground v.1.15,2013-02-11 18:30:00,
2013-02-11 13:40:00,56.5,49.4,29.80,South,191,6.0,7.0,77,0.00,,,0.07,Wunderground v.1.15,2013-02-11 18:40:00,
2013-02-11 13:50:00,56.0,48.9,29.81,WNW,295,6.0,6.0,77,0.00,,,0.07,Wunderground v.1.15,2013-02-11 18:50:00,
2013-02-11 14:00:00,55.5,48.8,29.82,WSW,258,7.0,13.0,78,0.00,,,0.07,Wunderground v.1.15,2013-02-11 19:00:00,
2013-02-11 14:10:00,55.0,48.6,29.83,NW,316,8.0,8.0,79,0.00,,,0.07,Wunderground v.1.15,2013-02-11 19:10:00,
2013-02-11 14:20:00,54.8,48.7,29.82,SSW,198,6.0,6.0,80,0.00,,,0.07,Wunderground v.1.15,2013-02-11 19:20:00,
2013-02-11 14:30:00,54.5,48.8,29.82,SW,225,6.0,6.0,81,0.00,,,0.07,Wunderground v.1.15,2013-02-11 19:30:00,
2013-02-11 14:40:00,54.2,48.5,29.82,SSE,152,6.0,6.0,81,0.00,,,0.07,Wunderground v.1.15,2013-02-11 19:40:00,
2013-02-11 14:50:00,54.1,48.7,29.82,NW,315,7.0,7.0,82,0.00,,,0.07,Wunderground v.1.15,2013-02-11 19:50:00,
2013-02-11 15:00:00,54.0,48.6,29.81,WSW,250,6.0,6.0,82,0.00,,,0.07,Wunderground v.1.15,2013-02-11 20:00:00,
2013-02-11 15:10:00,54.1,48.1,29.80,WSW,257,4.0,4.0,80,0.00,,,0.07,Wunderground v.1.15,2013-02-11 20:10:00,
2013-02-11 15:50:00,53.8,46.4,29.79,SW,236,6.0,7.0,76,0.00,,,0.07,Wunderground v.1.15,2013-02-11 20:50:00,
2013-02-11 16:00:00,53.9,45.8,29.79,SW,225,5.0,5.0,74,0.00,,,0.07,Wunderground v.1.15,2013-02-11 21:00:00,
2013-02-11 16:10:00,54.0,45.2,29.79,WSW,241,4.0,4.0,72,0.00,,,0.07,Wunderground v.1.15,2013-02-11 21:10:00,
2013-02-11 16:20:00,54.0,43.3,29.80,WSW,244,5.0,5.0,67,0.00,,,0.07,Wunderground v.1.15,2013-02-11 21:20:00,
2013-02-11 16:30:00,54.0,42.5,29.80,WSW,250,5.0,8.0,65,0.00,,,0.07,Wunderground v.1.15,2013-02-11 21:30:00,
2013-02-11 16:40:00,53.9,42.0,29.80,South,180,5.0,5.0,64,0.00,,,0.07,Wunderground v.1.15,2013-02-11 21:40:00,
2013-02-11 16:50:00,53.7,41.0,29.79,SE,146,6.0,6.0,62,0.00,,,0.07,Wunderground v.1.15,2013-02-11 21:50:00,
2013-02-11 17:00:00,53.6,40.5,29.80,WNW,287,4.0,4.0,61,0.00,,,0.07,Wunderground v.1.15,2013-02-11 22:00:00,
2013-02-11 17:10:00,53.5,40.4,29.80,North,360,5.0,5.0,61,0.00,,,0.07,Wunderground v.1.15,2013-02-11 22:10:00,
2013-02-11 17:20:00,53.2,40.5,29.81,WNW,286,3.0,3.0,62,0.00,,,0.07,Wunderground v.1.15,2013-02-11 22:20:00,
2013-02-11 17:30:00,52.9,39.8,29.80,WNW,292,3.0,3.0,61,0.00,,,0.07,Wunderground v.1.15,2013-02-11 22:30:00,
2013-02-11 17:40:00,52.8,39.7,29.80,WSW,248,4.0,4.0,61,0.00,,,0.07,Wunderground v.1.15,2013-02-11 22:40:00,
2013-02-11 17:50:00,52.5,39.4,29.80,South,178,3.0,3.0,61,0.00,,,0.07,Wunderground v.1.15,2013-02-11 22:50:00,
2013-02-11 18:00:00,52.2,39.1,29.80,West,273,3.0,4.0,61,0.00,,,0.07,Wunderground v.1.15,2013-02-11 23:00:00,
2013-02-11 18:10:00,52.0,38.5,29.80,WNW,295,3.0,5.0,60,0.00,,,0.07,Wunderground v.1.15,2013-02-11 23:10:00,
2013-02-11 18:20:00,51.8,38.3,29.80,WNW,298,3.0,6.0,60,0.00,,,0.07,Wunderground v.1.15,2013-02-11 23:20:00,
2013-02-11 18:30:00,51.6,38.6,29.80,South,186,3.0,3.0,61,0.00,,,0.07,Wunderground v.1.15,2013-02-11 23:30:00,
2013-02-11 18:40:00,51.4,38.0,29.81,WNW,291,4.0,6.0,60,0.00,,,0.07,Wunderground v.1.15,2013-02-11 23:40:00,
2013-02-11 18:50:00,51.3,37.9,29.81,West,272,3.0,3.0,60,0.00,,,0.07,Wunderground v.1.15,2013-02-11 23:50:00,
2013-02-11 19:00:00,51.0,38.0,29.81,WSW,244,3.0,7.0,61,0.00,,,0.07,Wunderground v.1.15,2013-02-12 00:00:00,
2013-02-11 19:10:00,50.9,37.5,29.82,West,277,5.0,5.0,60,0.00,,,0.07,Wunderground v.1.15,2013-02-12 00:10:00,
2013-02-11 19:20:00,50.7,37.7,29.82,WNW,294,3.0,4.0,61,0.00,,,0.07,Wunderground v.1.15,2013-02-12 00:20:00,
2013-02-11 19:30:00,50.5,37.1,29.82,West,259,4.0,4.0,60,0.00,,,0.07,Wunderground v.1.15,2013-02-12 00:30:00,
2013-02-11 19:40:00,50.3,37.4,29.82,West,266,3.0,3.0,61,0.00,,,0.07,Wunderground v.1.15,2013-02-12 00:40:00,
2013-02-11 19:50:00,50.0,37.5,29.83,SSW,200,3.0,3.0,62,0.00,,,0.07,Wunderground v.1.15,2013-02-12 00:50:00,
2013-02-11 20:00:00,49.8,37.3,29.83,SSE,161,4.0,5.0,62,0.00,,,0.07,Wunderground v.1.15,2013-02-12 01:00:00,
2013-02-11 20:10:00,49.5,36.6,29.83,West,281,3.0,5.0,61,0.00,,,0.07,Wunderground v.1.15,2013-02-12 01:10:00,
2013-02-11 20:20:00,49.2,36.3,29.83,West,275,2.0,6.0,61,0.00,,,0.07,Wunderground v.1.15,2013-02-12 01:20:00,
2013-02-11 20:30:00,49.0,35.7,29.83,West,259,3.0,3.0,60,0.00,,,0.07,Wunderground v.1.15,2013-02-12 01:30:00,
2013-02-11 20:40:00,48.8,35.5,29.84,West,261,3.0,4.0,60,0.00,,,0.07,Wunderground v.1.15,2013-02-12 01:40:00,
2013-02-11 20:50:00,48.7,35.4,29.84,SW,217,2.0,2.0,60,0.00,,,0.07,Wunderground v.1.15,2013-02-12 01:50:00,
2013-02-11 21:00:00,48.5,36.1,29.84,West,275,2.0,2.0,62,0.00,,,0.07,Wunderground v.1.15,2013-02-12 02:00:00,
2013-02-11 21:10:00,48.2,36.6,29.84,West,260,2.0,2.0,64,0.00,,,0.07,Wunderground v.1.15,2013-02-12 02:10:00,
2013-02-11 21:20:00,48.0,35.2,29.84,SSW,208,3.0,3.0,61,0.00,,,0.07,Wunderground v.1.15,2013-02-12 02:20:00,
2013-02-11 21:30:00,47.9,34.7,29.84,West,269,3.0,3.0,60,0.00,,,0.07,Wunderground v.1.15,2013-02-12 02:30:00,
2013-02-11 21:40:00,47.8,33.3,29.84,NW,317,3.0,3.0,57,0.00,,,0.07,Wunderground v.1.15,2013-02-12 02:40:00,
2013-02-11 21:50:00,47.7,31.9,29.84,WNW,294,4.0,4.0,54,0.00,,,0.07,Wunderground v.1.15,2013-02-12 02:50:00,
2013-02-11 22:00:00,47.7,31.4,29.84,West,266,4.0,5.0,53,0.00,,,0.07,Wunderground v.1.15,2013-02-12 03:00:00,
2013-02-11 22:10:00,47.6,30.3,29.84,NW,312,5.0,11.0,51,0.00,,,0.07,Wunderground v.1.15,2013-02-12 03:10:00,
2013-02-11 22:20:00,47.4,30.2,29.83,West,267,3.0,4.0,51,0.00,,,0.07,Wunderground v.1.15,2013-02-12 03:20:00,
2013-02-11 22:30:00,47.2,30.0,29.84,NW,323,5.0,5.0,51,0.00,,,0.07,Wunderground v.1.15,2013-02-12 03:30:00,
2013-02-11 22:40:00,46.9,29.7,29.84,West,279,3.0,3.0,51,0.00,,,0.07,Wunderground v.1.15,2013-02-12 03:40:00,
2013-02-11 22:50:00,46.8,29.6,29.84,West,268,5.0,5.0,51,0.00,,,0.07,Wunderground v.1.15,2013-02-12 03:50:00,
2013-02-11 23:00:00,46.6,28.9,29.84,NW,312,5.0,5.0,50,0.00,,,0.07,Wunderground v.1.15,2013-02-12 04:00:00,
2013-02-11 23:10:00,46.4,27.8,29.84,West,265,5.0,5.0,48,0.00,,,0.07,Wunderground v.1.15,2013-02-12 04:10:00,
2013-02-11 23:20:00,46.2,27.6,29.85,NW,323,4.0,4.0,48,0.00,,,0.07,Wunderground v.1.15,2013-02-12 04:20:00,
2013-02-11 23:30:00,45.8,25.6,29.87,NNW,329,4.0,4.0,45,0.00,,,0.07,Wunderground v.1.15,2013-02-12 04:30:00,
2013-02-11 23:40:00,45.3,24.6,29.87,NW,321,4.0,4.0,44,0.00,,,0.07,Wunderground v.1.15,2013-02-12 04:40:00,
2013-02-11 23:50:00,45.0,24.4,29.87,WSW,257,5.0,7.0,44,0.00,,,0.07,Wunderground v.1.15,2013-02-12 04:50:00,